Location: Poughquag
(41.6090°N, 73.6820°W)
Time: 01:27:39
(UTC-05:00)

Vanguard 2 - Visible Passes

Search period start: 29 November 2023 00:00
Search period end: 09 December 2023 00:00
Orbit: 553 x 2923 km, 32.9° (Epoch: 28 November)

Date Brightness Start Highest point End Pass type
(mag) Time Alt. Az. Time Alt. Az. Time Alt. Az.
29 Nov 9.9 04:02:52 13° SSE 04:02:52 13° SSE 04:03:37 10° SSE visible
29 Nov 11.3 19:29:21 10° S 19:36:38 16° SSE 19:36:38 16° SSE visible
29 Nov 11.5 21:34:39 10° SW 21:37:52 17° SSW 21:37:52 17° SSW visible
30 Nov 9.9 04:17:44 12° S 04:17:44 12° S 04:18:13 10° S visible
30 Nov 11.1 19:42:05 10° S 19:51:29 22° SSE 19:51:29 22° SSE visible
30 Nov 11.5 21:49:25 10° SW 21:52:44 17° SW 21:52:44 17° SW visible
01 Dec 11.0 19:55:42 10° SSW 20:06:20 27° SSE 20:06:20 27° SSE visible
01 Dec 11.5 22:04:26 10° SW 22:07:35 17° SW 22:07:35 17° SW visible
02 Dec 11.4 18:07:12 10° SSE 18:14:18 14° SE 18:19:56 11° ESE visible
02 Dec 10.9 20:09:52 10° SSW 20:21:11 32° S 20:21:11 32° S visible
02 Dec 11.6 22:19:40 10° WSW 22:22:25 16° SW 22:22:25 16° SW visible
03 Dec 11.2 18:18:57 10° S 18:29:33 19° SE 18:34:46 16° ESE visible
03 Dec 10.8 20:24:24 10° SW 20:36:00 36° S 20:36:00 36° S visible
03 Dec 11.6 22:35:03 10° WSW 22:37:15 15° WSW 22:37:15 15° WSW visible
04 Dec 11.0 18:32:04 10° S 18:44:49 25° SE 18:49:35 22° ESE visible
04 Dec 10.7 20:39:15 10° SW 20:50:48 39° SSW 20:50:48 39° SSW visible
04 Dec 11.7 22:50:35 10° WSW 22:52:03 13° WSW 22:52:03 13° WSW visible
05 Dec 10.8 18:45:54 10° SSW 19:00:06 31° SSE 19:04:21 28° SE visible
05 Dec 10.7 20:54:19 10° SW 21:05:35 41° SSW 21:05:35 41° SSW visible
05 Dec 11.8 23:06:11 10° WSW 23:06:49 11° WSW 23:06:49 11° WSW visible
06 Dec 11.5 16:57:31 10° SSE 17:05:28 15° SE 17:13:28 10° ESE visible
06 Dec 10.6 19:00:12 10° SSW 19:15:25 37° SSE 19:19:06 34° SE visible
06 Dec 10.7 21:09:34 10° WSW 21:20:20 41° SW 21:20:20 41° SW visible
07 Dec 11.4 17:09:44 10° S 17:20:32 21° SE 17:31:30 10° E visible
07 Dec 10.5 19:14:49 10° SW 19:30:47 44° SSE 19:33:49 41° SE visible
07 Dec 10.8 21:24:58 10° WSW 21:35:02 39° SW 21:35:02 39° SW visible
08 Dec 11.2 17:23:05 10° S 17:35:37 26° SE 17:47:16 12° E visible
08 Dec 10.4 19:29:43 10° SW 19:46:12 49° SSE 19:48:29 47° SE visible
08 Dec 10.9 21:40:29 10° WSW 21:49:43 37° WSW 21:49:43 37° WSW visible
